Wind_Speed
51 51 51 51 51 51 50 50 50 50 50 49 48 45 45 44 44 44 43 42 42 42 42 43 42 43 43 42 41 41 40 40 40 40 39 37 36 34
53 53 52 51 51 51 50 50 51 51 48 46 46 47 46 44 43 44 44 43 43 43 43 42 42 43 42 42 41 40 39 40 40 39 38 37 35 33
55 54 53 52 51 52 51 51 51 50 48 46 45 46 47 46 45 44 44 44 44 44 43 43 43 43 43 42 41 40 40 39 39 38 37 35 34 33
56 55 54 52 51 51 50 50 50 50 48 47 46 45 45 46 47 46 45 44 43 44 44 43 43 42 42 42 41 40 39 39 38 37 36 35 34 33
54 55 53 53 53 52 51 50 49 49 48 48 47 46 46 45 45 46 47 46 45 44 43 43 42 42 42 42 40 40 39 38 37 37 35 34 33 32
53 53 53 53 52 51 51 50 49 49 48 49 48 47 46 45 46 46 46 46 46 44 43 43 43 43 42 41 39 39 38 37 36 35 35 34 33 32
54 53 52 52 51 51 51 51 51 51 50 50 49 48 47 46 45 45 46 46 46 45 44 43 43 43 42 40 39 38 37 36 36 35 35 34 33 31
51 51 51 51 51 52 52 52 52 52 51 51 50 48 47 47 47 47 45 45 46 46 44 43 42 41 40 39 38 37 37 36 35 35 35 34 32 31
50 51 52 53 53 53 53 52 53 53 52 52 51 50 48 47 48 48 47 46 46 45 44 42 42 41 39 38 38 37 37 36 36 35 34 33 32 31
49 50 51 52 53 52 52 52 53 52 52 52 51 50 49 49 48 47 46 46 45 44 43 43 41 40 39 38 37 36 35 35 35 34 34 33 32 31
46 47 48 49 50 50 51 51 50 50 51 51 51 51 50 49 48 47 45 44 43 43 42 41 40 40 38 37 36 36 36 35 34 33 33 32 31 30
46 47 48 48 49 49 50 50 49 49 50 50 50 50 50 49 49 47 44 43 43 43 42 41 40 39 38 37 36 36 35 35 34 33 32 31 30 29
44 46 47 48 49 49 48 49 49 49 49 48 48 49 48 47 46 45 44 43 43 42 41 40 39 38 37 36 35 35 34 34 33 32 31 31 30 29
43 44 44 46 47 47 47 47 48 49 48 48 48 47 47 46 45 43 42 42 41 41 40 38 37 37 36 35 35 34 33 33 32 32 31 30 30 29
41 41 41 42 43 44 45 45 45 46 47 47 46 46 45 44 44 44 43 41 40 38 37 36 36 37 36 35 34 33 32 31 31 31 30 29 29 29
40 41 42 42 43 43 43 43 43 44 44 44 44 44 44 43 43 42 41 39 38 37 37 37 37 36 35 34 33 32 31 31 31 31 30 29 29 29
38 38 39 41 41 41 40 39 40 40 41 42 43 42 42 42 41 40 39 37 37 37 37 37 37 36 35 33 33 32 31 31 31 30 30 29 29 29
38 37 37 38 39 40 40 40 40 40 40 41 41 41 41 41 40 40 39 38 36 36 35 35 36 35 34 33 32 32 31 30 30 30 29 30 30 29
38 38 38 37 37 38 38 39 39 40 39 39 39 39 39 40 39 38 38 38 36 35 34 34 34 33 32 31 31 31 30 30 30 30 30 30 30 30
37 38 38 37 37 37 37 38 39 39 38 38 39 39 39 38 37 37 36 36 36 35 35 34 34 33 32 32 31 31 30 30 30 30 30 30 30 30
37 37 37 37 37 37 37 38 38 38 37 38 38 38 38 37 37 36 36 36 36 36 35 34 34 33 33 32 32 31 31 31 30 30 30 30 30 30
37 37 37 37 37 37 37 37 37 37 37 38 37 37 37 37 37 36 36 36 36 36 35 35 34 34 33 33 32 32 32 31 31 31 31 31 31 31
37 37 37 37 36 37 37 37 37 37 38 37 37 36 37 37 37 36 36 36 35 35 34 34 34 34 34 34 33 33 32 31 31 31 32 32 32 32
Wind_Direction
251 253 255 256 258 260 263 265 266 266 266 266 265 266 270 272 272 273 275 277 279 281 282 284 285 288 289 291 294 295 296 298 301 304 305 307 308 309
251 254 256 257 259 259 261 264 265 267 267 266 265 266 268 270 272 272 273 276 278 279 281 282 285 287 288 290 292 293 295 298 300 302 304 305 305 306
252 254 256 256 257 258 261 263 264 265 265 265 265 268 269 270 271 272 273 274 277 278 279 282 284 285 286 288 290 292 294 296 298 301 302 302 303 305
252 253 255 255 257 258 260 262 264 265 265 265 266 268 269 271 271 271 272 275 276 277 278 280 283 285 285 286 288 291 294 295 296 299 300 300 301 302
253 253 254 255 256 257 260 263 264 264 265 266 267 268 270 271 271 271 271 273 275 275 276 278 281 283 285 286 288 290 292 294 295 298 297 297 298 299
253 253 253 255 257 257 259 261 262 263 264 266 267 268 269 271 271 272 272 273 274 273 274 276 278 281 283 284 286 289 291 292 294 295 296 296 297 298
254 254 254 255 256 256 258 260 261 262 263 265 266 268 269 271 271 273 273 272 271 272 273 275 277 279 281 283 285 288 289 290 291 293 294 295 296 296
255 254 254 254 256 257 258 259 259 261 262 264 265 267 269 270 270 272 272 270 269 271 272 274 277 279 280 282 284 285 287 289 289 291 292 294 294 294
255 255 255 255 256 256 257 257 258 259 261 263 265 267 267 268 270 270 269 269 270 269 271 274 276 277 279 281 283 284 285 287 288 289 290 291 291 291
256 257 258 257 255 256 258 258 260 261 262 263 264 265 265 265 267 267 268 267 268 269 270 273 274 275 276 279 281 282 284 284 285 287 288 288 288 288
258 258 258 256 255 256 258 259 260 261 261 261 262 263 263 263 264 265 266 267 268 268 269 272 274 274 274 277 279 280 281 282 283 285 286 286 286 285
257 258 257 255 256 256 257 258 259 260 260 260 261 261 262 262 263 264 265 267 267 267 268 271 272 273 274 275 277 279 280 281 282 284 284 283 283 282
258 258 257 256 257 256 257 258 261 260 260 260 259 259 261 263 264 263 264 265 265 266 268 270 271 272 273 274 275 277 278 279 281 281 281 281 280 279
261 261 260 259 258 257 257 259 260 258 258 259 259 259 261 262 262 262 262 264 264 266 267 268 268 270 272 273 274 275 277 278 278 279 279 278 277 276
262 262 261 259 258 258 257 258 259 259 258 259 260 260 261 261 261 260 261 263 264 264 265 265 266 269 270 271 273 274 275 275 275 275 275 275 274 273
262 262 262 260 260 259 257 256 257 258 257 258 260 260 259 259 260 260 260 261 262 263 263 265 266 268 268 269 271 272 272 272 272 273 273 273 272 271
261 262 261 259 258 256 254 254 255 255 256 257 258 259 260 259 259 259 261 262 262 263 265 265 265 267 267 268 269 271 271 270 271 271 272 271 270 270
263 263 262 259 257 256 255 255 254 255 257 259 259 258 258 258 258 259 259 259 260 261 262 263 263 264 265 266 268 269 269 268 269 270 271 271 271 271
265 265 264 261 259 258 257 255 255 256 258 258 256 256 255 255 255 256 256 257 258 259 260 261 261 262 264 265 266 267 268 268 269 269 270 270 271 271
268 268 266 263 261 260 259 258 258 258 257 255 255 255 254 254 254 254 254 254 256 258 259 259 260 261 263 264 265 266 266 267 268 269 270 270 270 271
269 269 268 265 263 262 261 259 258 257 255 254 254 253 252 253 253 253 253 254 255 256 257 258 258 260 263 264 264 265 266 266 268 269 270 270 270 270
269 269 268 266 265 263 261 259 257 255 254 254 252 251 250 250 251 252 253 253 254 255 257 258 258 260 262 262 263 264 264 266 268 269 269 270 269 269
270 269 267 267 265 263 260 258 256 254 253 253 252 251 249 249 250 251 253 254 255 257 258 258 259 260 260 261 262 262 263 266 267 269 269 269 268 268
Height
5724 5726 5728 5730 5731 5732 5733 5734 5735 5735 5737 5739 5739 5740 5740 5740 5740 5741 5741 5740 5740 5739 5738 5737 5736 5735 5733 5731 5729 5727 5726 5724 5721 5719 5716 5713 5710 5708
5711 5713 5715 5717 5718 5719 5720 5721 5722 5722 5723 5726 5727 5728 5728 5729 5729 5729 5729 5729 5729 5728 5728 5727 5726 5725 5724 5722 5720 5718 5717 5715 5713 5711 5708 5706 5703 5701
5698 5700 5702 5704 5705 5706 5708 5709 5709 5710 5711 5713 5714 5715 5716 5716 5717 5717 5717 5717 5717 5717 5717 5716 5716 5715 5714 5712 5711 5709 5708 5706 5704 5702 5700 5698 5696 5694
5685 5687 5689 5690 5691 5693 5695 5696 5697 5697 5698 5700 5702 5702 5703 5704 5704 5705 5705 5705 5706 5706 5706 5706 5705 5704 5703 5703 5701 5700 5699 5697 5696 5694 5692 5690 5688 5686
5671 5673 5675 5677 5678 5680 5682 5683 5684 5685 5686 5687 5689 5690 5691 5691 5692 5692 5693 5693 5694 5694 5695 5695 5695 5694 5694 5693 5691 5690 5689 5688 5687 5685 5683 5682 5680 5678
5657 5659 5661 5663 5665 5667 5668 5670 5671 5672 5673 5674 5676 5677 5678 5679 5679 5680 5681 5681 5682 5683 5683 5684 5684 5684 5683 5682 5682 5681 5680 5679 5678 5676 5675 5673 5672 5670
5642 5644 5647 5649 5651 5653 5654 5656 5657 5658 5660 5661 5662 5664 5665 5666 5668 5668 5669 5669 5670 5670 5672 5672 5673 5673 5673 5672 5671 5671 5670 5669 5668 5667 5666 5665 5663 5662
5628 5630 5632 5635 5637 5639 5641 5642 5643 5645 5646 5648 5649 5651 5653 5654 5655 5656 5656 5657 5658 5659 5660 5661 5661 5661 5661 5661 5661 5660 5660 5659 5658 5657 5657 5656 5655 5654
5613 5615 5618 5620 5622 5625 5626 5627 5629 5630 5632 5634 5636 5638 5640 5641 5642 5643 5644 5644 5645 5647 5648 5649 5649 5650 5650 5650 5650 5650 5650 5649 5649 5648 5647 5647 5646 5645
5599 5601 5603 5605 5607 5609 5611 5613 5614 5616 5618 5620 5622 5625 5626 5628 5629 5630 5631 5632 5633 5635 5636 5638 5638 5639 5639 5639 5639 5640 5639 5639 5639 5638 5638 5637 5637 5636
5586 5587 5589 5590 5592 5594 5597 5599 5601 5602 5604 5606 5609 5611 5612 5614 5615 5617 5618 5620 5621 5623 5624 5625 5626 5627 5628 5628 5629 5629 5629 5629 5628 5628 5628 5628 5627 5627
5573 5574 5575 5577 5578 5579 5582 5585 5587 5589 5591 5593 5595 5597 5598 5600 5602 5604 5606 5608 5609 5611 5613 5614 5615 5616 5617 5617 5618 5618 5618 5618 5618 5618 5618 5618 5618 5618
5559 5561 5562 5563 5564 5566 5568 5570 5573 5575 5577 5579 5581 5584 5586 5588 5590 5592 5594 5596 5598 5600 5601 5602 5603 5604 5606 5607 5607 5607 5608 5608 5608 5608 5608 5609 5609 5609
5546 5548 5548 5550 5551 5553 5554 5556 5559 5561 5563 5566 5568 5571 5573 5575 5577 5579 5581 5583 5585 5588 5590 5591 5592 5593 5594 5595 5596 5597 5597 5598 5598 5598 5599 5599 5599 5599
5533 5534 5536 5537 5538 5539 5541 5543 5545 5548 5550 5553 5555 5558 5560 5562 5565 5567 5569 5572 5574 5576 5578 5579 5581 5582 5584 5585 5586 5586 5587 5588 5588 5589 5589 5589 5589 5590
5521 5522 5523 5524 5525 5527 5528 5530 5533 5536 5538 5541 5543 5546 5548 5550 5552 5555 5558 5560 5563 5565 5566 5568 5570 5572 5573 5574 5575 5576 5577 5577 5578 5579 5579 5580 5580 5580
5509 5510 5511 5512 5513 5514 5516 5519 5521 5524 5526 5528 5531 5533 5536 5538 5540 5543 5546 5549 5551 5553 5555 5557 5559 5561 5562 5564 5565 5566 5566 5567 5568 5569 5569 5570 5571 5571
5498 5499 5499 5499 5501 5502 5505 5507 5509 5512 5514 5516 5519 5521 5523 5526 5529 5532 5535 5538 5540 5542 5544 5546 5548 5550 5552 5553 5554 5555 5556 5557 5558 5559 5559 5560 5561 5562
5486 5487 5487 5488 5489 5491 5493 5495 5498 5500 5502 5505 5507 5509 5511 5514 5517 5520 5523 5526 5529 5531 5533 5535 5537 5539 5541 5543 5544 5545 5546 5547 5548 5549 5550 5550 5551 5552
5474 5475 5476 5477 5477 5479 5481 5483 5485 5488 5490 5492 5495 5497 5500 5503 5506 5508 5511 5514 5517 5520 5522 5525 5527 5528 5530 5532 5533 5535 5536 5537 5538 5539 5540 5540 5541 5542
5463 5463 5464 5465 5466 5467 5469 5471 5473 5475 5478 5480 5483 5485 5488 5491 5494 5497 5500 5503 5506 5509 5511 5514 5515 5517 5519 5521 5523 5524 5525 5527 5528 5529 5529 5530 5531 5531
5451 5451 5452 5453 5454 5455 5457 5459 5461 5463 5466 5468 5471 5473 5476 5479 5482 5486 5489 5492 5495 5497 5500 5502 5504 5506 5508 5510 5511 5513 5515 5516 5517 5518 5519 5520 5520 5521
5438 5439 5439 5440 5441 5443 5444 5446 5449 5451 5454 5456 5459 5462 5465 5468 5471 5474 5477 5480 5483 5486 5488 5490 5493 5495 5497 5499 5501 5502 5504 5505 5506 5507 5508 5508 5509 5510